Portada
METAR-TAF:

METAR-TAF

Aeroports :

Pottstown Limerick Airport

Pottstown, Pennsilvània, Estats Units d'Amèrica

latitud: 40-14-18N, longitud: 075-33-26W, altitud: 89 m

Observació

L'informe es va fer fa 8 minuts, a les 19:54 UTC
Vent 7 kt del Sud/Sud-Oest amb ràfegues de 19 kt
Temperatura 12°C
Humitat 35%
Pressió 1014 hPa
Visibilitat: 16.1 km
Cel clar

METAR: KPTW 241954Z AUTO 20007G19KT 10SM CLR 12/M03 A2994 RMK AO2 SLP137 T01221033

Hora: 15:02 (20:02 UTC)


TAF: manca

Observacions i pronòstics meteorològics de més de 4000 aeroports (METAR i TAF).

Les estacions disponibles són els punts grocs i vermells al mapa.

Posi el ratolí al punt desitjat per veure el nom de l'estació.

Feu clic per veure les observacions i els pronòstics meteorològics.

Per canviar el mapa: feu clic els botons verds amb una creu de color negre per apropar; al botó verd amb un guió per allunyar la imatge; o en les fletxes verdes per a mapes adjacents.


METAR-TAF: